User: anonymous   Login
Location: Byszew
(52.1813°N, 19.2693°E)
Time: 00:48:16
(UTC+00:00)
Language:

Cosmos 1867 - Orbit

View from above orbital plane
View from above orbital plane
View from above satellite
View from above satellite

Ground track
Ground track

The orbit data is extracted from the following two-line orbital elements,

1 18187U 87060A   21125.46761917 -.00000091  00000-0  33078-5 0  9995
2 18187  65.0109 219.5016 0019326 279.8165  80.0737 14.31121342766726
Epoch (UTC): 05 May 2021 11:13:22
Eccentricity: 0.0019326
inclination: 65.0109°
perigee height: 774 km
apogee height: 802 km
right ascension of ascending node: 219.5016°
argument of perigee: 279.8165°
revolutions per day: 14.31121342
mean anomaly at epoch: 80.0737°
orbit number at epoch: 76672

The dashed part of the orbit path shows where the satellite is in the earth's shadow,  

DLR